Flag for Norway Weather past 2 weeks in Ålesund, Norway

Now
45 °F

Partly sunny.


Feels Like: 41 °F
Forecast: 38 / 40 °F
Wind: 7 mph from Southwest

Location: Alesund / Vigra

Current Time: Jan 28, 2015 at 3:59:35 PM

Latest Report: Jan 28, 2015 at 3:20 PM


Visibility: N/A

Pressure: 28.65 "Hg

Humidity: 71%

Dew point: 36 °F

Location of ÅlesundLocation

Historic Weather in Ålesund — Graph

°F

Ålesund temperature yesterday

Maximum temperature yesterday: 46 °F (at 5:50 PM)
Minimum temperature yesterday: 37 °F (at 12:50 AM)
Average temperature yesterday: 42 °F

Past Weeks' High & Low Weather Summary

 TemperatureHumidityPressure
High48 °F (Jan 25, 8:20 PM)100% (Jan 16, 5:50 PM)30.18 "Hg (Jan 16, 5:50 PM)
Low30 °F (Jan 22, 3:20 AM)42% (Jan 16, 2:50 AM)28.56 "Hg (Jan 16, 5:50 AM)
Average39 °F69%29.51 "Hg
* Reported Jan 13 2:20 PM — Jan 28 2:50 PM, Ålesund, Weather by CustomWeather, © 2014

Note: Actual official high and low records may vary slightly from our data, if they occured in-between our weather recording intervals... More about our weather records

Advertising

Ålesund weather history for previous 24 hours

 ConditionsComfort  
Time TempWeatherWind HumidityBarometerVisibility
2:50 PM
Jan 28
45 °FBroken clouds.7 mph71%28.68 "HgN/A
1:50 PM45 °FPartly sunny.10 mph71%28.71 "HgN/A
1:20 PM45 °FScattered clouds.12 mph71%28.71 "HgN/A
12:50 PM46 °FScattered clouds.10 mph71%28.74 "HgN/A
12:20 PM45 °FPartly sunny.10 mph71%28.77 "HgN/A
11:50 AM45 °FPartly sunny.9 mph71%28.80 "HgN/A
11:20 AM45 °FPartly sunny.12 mph71%28.82 "HgN/A
10:50 AM45 °FPartly sunny.9 mph76%28.82 "HgN/A
10:20 AM45 °FMostly cloudy.14 mph71%28.85 "HgN/A
9:20 AM45 °FPartly sunny.16 mph71%28.88 "HgN/A
8:20 AM45 °FPassing clouds.14 mph71%28.91 "HgN/A
7:50 AM45 °FPartly cloudy.15 mph71%28.94 "HgN/A
7:20 AM45 °FMostly cloudy.14 mph71%28.97 "HgN/A
6:50 AM45 °FMostly cloudy.14 mph76%29.00 "HgN/A
6:20 AM45 °FPassing clouds.13 mph76%29.03 "HgN/A
5:50 AM45 °FPassing clouds.10 mph81%29.06 "HgN/A
5:20 AM45 °FPassing clouds.13 mph76%29.06 "HgN/A
4:50 AM43 °FOvercast.16 mph87%29.09 "HgN/A
4:20 AM43 °FDrizzle. Mostly cloudy.14 mph87%29.12 "HgN/A
3:50 AM43 °FLight rain. Overcast.16 mph87%29.15 "HgN/A
3:20 AM43 °FLight rain. Overcast.17 mph87%29.18 "Hg5 mi
2:50 AM43 °FRain. Overcast.17 mph87%29.21 "Hg4 mi
2:20 AM43 °FLight rain. Mostly cloudy.18 mph87%29.21 "HgN/A
1:50 AM43 °FLight rain. Mostly cloudy.17 mph87%29.24 "HgN/A
1:20 AM45 °FLight rain. Partly cloudy.17 mph87%29.27 "Hg5 mi
12:50 AM43 °FRain. Mostly cloudy.16 mph93%29.30 "Hg4 mi
12:20 AM45 °FRain. Mostly cloudy.20 mph87%29.30 "Hg3 mi
11:50 PM
Jan 27
45 °FLight rain. Partly cloudy.24 mph87%29.33 "Hg4 mi
11:20 PM45 °FLight rain. Low clouds.25 mph87%29.33 "Hg3 mi
10:50 PM43 °FDrizzle. Light fog.25 mph93%29.36 "Hg5 mi
9:50 PM45 °FRain showers. Partly cloudy.22 mph87%29.39 "Hg6 mi
9:20 PM45 °FRain showers. Partly cloudy.18 mph87%29.39 "Hg6 mi
8:50 PM45 °FRain showers. Partly cloudy.23 mph87%29.42 "HgN/A
7:50 PM45 °FRain showers. Passing clouds.24 mph87%29.45 "HgN/A
7:20 PM45 °FRain showers. Passing clouds.20 mph87%29.47 "HgN/A
6:50 PM45 °FRain showers. Partly cloudy.25 mph87%29.47 "HgN/A
6:20 PM46 °FPassing clouds.23 mph87%29.50 "HgN/A
5:50 PM46 °FPartly cloudy.28 mph82%29.50 "HgN/A
4:50 PM45 °FRain showers. Light fog.20 mph93%29.53 "Hg4 mi
4:20 PM43 °FRain showers. Partly cloudy.17 mph93%29.53 "Hg4 mi
3:50 PM43 °FLight rain. Partly sunny.20 mph87%29.53 "HgN/A
3:20 PM41 °FLight rain. Partly sunny.20 mph93%29.56 "Hg6 mi
Weather by CustomWeather, © 2014

See weather overviewHow to use our weather pages